Spirit of St Louis, MO

12:50 AM CST on November 13, 2019 (GMT -0600)
Spirit Of Saint Louis

Weather History for KSUS - October, 2019

Change the Weather History Date:

Tuesday, October 22, 2019

  Actual Average Record
Temperature  
Mean Temperature 51 °F -  
Max Temperature 62 °F 65 °F 84 °F (2015)
Min Temperature 41 °F 41 °F 25 °F (1997)
Degree Days  
Heating Degree Days 14    
Growing Degree Days 1 (Base 50)    
Moisture  
Dew Point 35 °F    
Average Humidity 55    
Maximum Humidity 76    
Minimum Humidity 27    
Precipitation  
Precipitation 0.00 in - - ()
Sea Level Pressure  
Sea Level Pressure 29.88 in    
Wind  
Wind Speed 13 mph (WSW)    
Max Wind Speed 22 mph    
Max Gust Speed 32 mph    
Visibility 10 miles    
Events      
Averages and records for this station are not official NWS values.
T = Trace of Precipitation, MM = Missing Value Source: NWS Daily Summary

Daily Weather History Graph

Daily Weather History Graph

Search for Another Location

Airport or City:

Astronomy

Oct. 22, 2019 Rise Set
Actual Time 7:18 AM CDT 6:14 PM CDT
Civil Twilight 6:51 AM CDT 6:41 PM CDT
Nautical Twilight 6:20 AM CDT 7:12 PM CDT
Astronomical Twilight 5:49 AM CDT 7:43 PM CDT
Moon 12:34 AM CDT (10/22) 3:19 PM CDT (10/22)
Length of Visible Light 11h 50m
Length of Day
10h 56m
Last Quarter, 37% of the Moon is Illuminated
Oct 22
Last Quarter
Oct 27
New
Nov 4
First Quarter
Nov 12
Full
Nov 19
Last Quarter

Hourly Weather History & Observations

Time (CDT) Temp. Windchill Dew Point Humidity Pressure Visibility Wind Dir Wind Speed Gust Speed Precip Events Conditions
12:54 AM 53.1 °F - 39.0 °F 59% 29.75 in 10.0 mi WSW 11.5 mph - N/A   Clear
1:54 AM 54.0 °F - 39.0 °F 57% 29.76 in 10.0 mi WSW 15.0 mph 25.3 mph N/A   Mostly Cloudy
2:54 AM 53.1 °F - 37.9 °F 57% 29.76 in 10.0 mi West 13.8 mph 23.0 mph N/A   Mostly Cloudy
3:54 AM 53.1 °F - 39.9 °F 61% 29.77 in 10.0 mi WSW 12.7 mph 23.0 mph N/A   Overcast
4:54 AM 53.1 °F - 39.9 °F 61% 29.78 in 10.0 mi WSW 16.1 mph 23.0 mph N/A   Overcast
5:54 AM 50.0 °F - 39.9 °F 68% 29.81 in 10.0 mi West 15.0 mph 24.2 mph N/A   Clear
6:54 AM 48.0 °F - 39.9 °F 74% 29.83 in 10.0 mi West 12.7 mph 24.2 mph N/A   Clear
7:54 AM 48.0 °F - 39.0 °F 71% 29.84 in 10.0 mi WSW 12.7 mph - N/A   Clear
8:54 AM 50.0 °F - 37.9 °F 63% 29.86 in 10.0 mi WSW 16.1 mph 28.8 mph N/A   Clear
10:54 AM 54.0 °F - 37.0 °F 53% 29.90 in 10.0 mi WSW 16.1 mph 27.6 mph N/A   Clear
11:54 AM 57.0 °F - 37.9 °F 49% 29.90 in 10.0 mi WSW 13.8 mph 24.2 mph N/A   Partly Cloudy
12:54 PM 59.0 °F - 37.0 °F 44% 29.88 in 10.0 mi West 16.1 mph 28.8 mph N/A   Partly Cloudy
1:54 PM 60.1 °F - 36.0 °F 41% 29.88 in 10.0 mi WSW 15.0 mph 27.6 mph N/A   Scattered Clouds
2:54 PM 61.0 °F - 30.9 °F 32% 29.89 in 10.0 mi WSW 18.4 mph 31.1 mph N/A   Partly Cloudy
3:54 PM 60.1 °F - 28.9 °F 31% 29.91 in 10.0 mi WSW 21.9 mph 32.2 mph N/A   Clear
4:54 PM 60.1 °F - 26.1 °F 27% 29.91 in 10.0 mi West 18.4 mph 27.6 mph N/A   Clear
5:54 PM 57.0 °F - 27.0 °F 32% 29.94 in 10.0 mi West 9.2 mph - N/A   Clear
6:54 PM 51.1 °F - 28.9 °F 43% 29.96 in 10.0 mi West 8.1 mph - N/A   Clear
7:54 PM 46.9 °F - 32.0 °F 56% 29.99 in 10.0 mi SW 5.8 mph - N/A   Clear
8:54 PM 43.0 °F 40.3 °F 36.0 °F 76% 30.00 in 10.0 mi WSW 4.6 mph - N/A   Clear
9:54 PM 41.0 °F 37.1 °F 34.0 °F 76% 30.01 in 10.0 mi SW 5.8 mph - N/A   Clear
10:54 PM 42.1 °F 37.1 °F 34.0 °F 73% 30.01 in 10.0 mi WSW 8.1 mph - N/A   Clear
11:54 PM 44.1 °F 39.5 °F 34.0 °F 68% 30.01 in 10.0 mi West 8.1 mph - N/A   Clear